Stations météo

Publicité
Barth, Allemagne (10180): Température de l'air & dewpoint: 11.12.2018 13:00:00 - 17.12.2018 13:00:00 (CET)Barth, Allemagne (10180): Température de l'air 5cm & Température de l'air -5cm: 11.12.2018 13:00:00 - 17.12.2018 13:00:00 (CET)Barth, Allemagne (10180): Température de l'air -20cm & Température de l'air -100cm: 11.12.2018 13:00:00 - 17.12.2018 13:00:00 (CET)Barth, Allemagne (10180): Vitesse du vent & gusts: 11.12.2018 13:00:00 - 17.12.2018 13:00:00 (CET)Barth, Allemagne (10180): Direction du vent: 11.12.2018 13:00:00 - 17.12.2018 13:00:00 (CET)Barth, Allemagne (10180): reduced air pressure: 11.12.2018 13:00:00 - 17.12.2018 13:00:00 (CET)Barth, Allemagne (10180): visibility: 11.12.2018 13:00:00 - 17.12.2018 13:00:00 (CET)Barth, Allemagne (10180): Ensoleillement: 11.12.2018 13:00:00 - 17.12.2018 13:00:00 (CET)Barth, Allemagne (10180): Quantités de précipitations: 11.12.2018 13:00:00 - 17.12.2018 13:00:00 (CET)
Date & Time tt [°C] td [°C] tt 5cm [°C] tt -5cm [°C] tt -20cm [°C] tt -100cm [°C] ff [km/h] ff [knt] fx [km/h] fx [knt] dd ppp [hPa] vv [km] sd [min] rr [mm]
17.12.2018 13:00:00 -0,5 -3,5 0,0 0,0 1,4 7,2 7 4 13 7 SE 1020,4 8 0 0,0
17.12.2018 12:00:00 -0,9 -3,4 -0,3 0,0 1,4 7,2 8 4 11 6 SE 1020,4 8 0 0,0
17.12.2018 11:00:00 -1,4 -3,7 -1,3 0,0 1,4 7,2 7 4 11 6 SE 1020,6 8 0 0,0
17.12.2018 10:00:00 -2,8 -4,3 -2,5 0,0 1,4 7,2 8 4 11 6 E 1020,3 6 0 0,0
17.12.2018 09:00:00 -5,3 -6,5 -6,5 0,0 1,5 7,2 4 2 8 4 ESE 1019,6 5 0 0,0
17.12.2018 08:00:00 -4,1 -5,5 -6,9 0,1 1,5 7,2 7 4 10 5 SE 1018,8 6 0 0,0
17.12.2018 07:00:00 -2,6 -4,5 -5,0 0,1 1,5 7,2 6 4 11 6 ESE 1018,2 6 0 0,0
17.12.2018 06:00:00 -1,5 -3,9 -2,0 0,1 1,5 7,2 6 3 11 6 SSE 1017,7 8 0 0,0
17.12.2018 05:00:00 -1,4 -3,9 -1,9 0,1 1,5 7,2 8 4 11 6 SSE 1017,2 8 0 0,0
17.12.2018 04:00:00 -1,3 -3,7 -1,9 0,1 1,5 7,3 5 3 13 7 SE 1017,0 8 0 0,0
17.12.2018 03:00:00 -1,2 -3,9 -1,8 0,2 1,5 7,3 8 4 13 7 SE 1016,6 9 0 0,0
17.12.2018 02:00:00 -0,9 -4,0 -1,2 0,2 1,5 7,3 9 5 15 8 SE 1016,5 9 0 0,0
17.12.2018 01:00:00 -1,0 -4,0 -1,3 0,2 1,6 7,3 10 5 14 8 ESE 1016,3 10 0 0,0
17.12.2018 00:00:00 -0,9 -4,1 -1,2 0,2 1,6 7,3 10 5 14 7 SE 1016,1 10 0 0,0
16.12.2018 23:00:00 -0,8 -4,0 -1,2 0,2 1,6 7,3 10 5 16 9 SE 1015,8 10 0 0,0
16.12.2018 22:00:00 -0,7 -4,0 -1,0 0,2 1,6 7,3 10 6 17 9 SE 1015,7 10 0 0,0
16.12.2018 21:00:00 -0,7 -4,1 -0,9 0,2 1,6 7,3 11 6 18 10 SE 1015,6 10 0 0,0
16.12.2018 20:00:00 -0,6 -4,0 -1,0 0,2 1,6 7,3 12 6 19 10 SE 1015,3 9 0 0,0
16.12.2018 19:00:00 -0,6 -4,1 -0,9 0,2 1,6 7,3 10 5 16 9 SE 1015,3 10 0 0,0
16.12.2018 18:00:00 -0,5 -4,5 -0,8 0,2 1,7 7,3 10 6 18 10 SE 1015,4 10 0 0,0
16.12.2018 17:00:00 -0,5 -4,6 -0,9 0,2 1,7 7,3 11 6 18 10 SSE 1015,5 12 0 0,0
16.12.2018 16:00:00 -0,4 -5,0 -0,8 0,2 1,7 7,4 16 8 24 13 SE 1015,3 13 0 0,0
16.12.2018 15:00:00 -0,4 -5,1 -0,7 0,2 1,7 7,4 16 9 30 16 SE 1015,4 14 0 0,0
16.12.2018 14:00:00 -0,4 -5,2 -0,6 0,3 1,7 7,4 17 9 31 17 SE 1015,8 16 0 0,0
16.12.2018 13:00:00 -0,2 -5,9 -0,4 0,3 1,8 7,4 22 12 34 18 SE 1016,5 19 0 0,0
16.12.2018 12:00:00 -0,5 -4,5 -0,5 0,3 1,8 7,4 17 9 32 17 ESE 1017,3 16 0 0,0
16.12.2018 11:00:00 -0,7 -4,3 -0,7 0,3 1,8 7,4 16 9 24 13 ESE 1018,3 12 0 0,0
16.12.2018 10:00:00 -1,5 -4,8 -2,5 0,3 1,9 7,4 12 7 22 12 SE 1018,9 12 42 0,0
16.12.2018 09:00:00 -2,1 -4,8 -3,3 0,4 1,9 7,4 16 9 25 13 E 1018,8 9 0 0,0
16.12.2018 08:00:00 -1,4 -4,4 -2,7 0,4 1,9 7,4 16 8 33 18 SE 1019,4 10 0 0,0
16.12.2018 07:00:00 -1,2 -4,2 -1,9 0,5 2,0 7,4 22 12 38 20 SE 1020,0 9 0 0,0
16.12.2018 06:00:00 -0,9 -3,3 -1,2 0,5 2,0 7,4 18 10 27 14 ESE 1020,8 8 0 0,0
16.12.2018 05:00:00 -1,5 -3,6 -3,0 0,6 2,0 7,5 15 8 27 14 ESE 1021,1 7 0 0,0
16.12.2018 04:00:00 -0,5 -2,5 -1,9 0,6 2,1 7,5 16 9 24 13 ESE 1021,9 8 0 0,0
16.12.2018 03:00:00 0,0 -1,7 -0,8 0,6 2,1 7,5 16 8 20 11 ESE 1022,7 6 0 0,0
16.12.2018 02:00:00 0,3 -1,6 -0,2 0,7 2,1 7,5 15 8 23 12 SE 1023,2 7 0 0,0
16.12.2018 01:00:00 0,1 -1,7 -0,4 0,7 2,2 7,5 12 7 17 9 ESE 1024,0 7 0 0,0
16.12.2018 00:00:00 -0,2 -1,7 -0,9 0,7 2,2 7,5 9 5 18 10 SE 1024,8 8 0 0,0
15.12.2018 23:00:00 -0,1 -1,6 -0,4 0,8 2,3 7,5 10 6 16 8 ESE 1025,6 9 0 0,0
15.12.2018 22:00:00 -0,4 -1,7 -0,6 0,8 2,3 7,5 10 5 16 9 ESE 1026,2 10 0 0,0
15.12.2018 21:00:00 -0,6 -2,0 -1,5 0,9 2,4 7,5 8 5 12 7 SE 1026,7 9 0 0,0
15.12.2018 20:00:00 -0,5 -1,7 -1,0 1,1 2,4 7,5 3 2 5 3 ESE 1027,0 10 0 0,0
15.12.2018 19:00:00 -0,3 -1,6 -0,4 1,2 2,4 7,5 2 1 4 2 SSE 1027,8 9 0 0,0
15.12.2018 18:00:00 -0,1 -2,2 -0,2 1,3 2,4 7,5 3 2 8 4 N 1028,3 10 0 0,0
15.12.2018 17:00:00 0,3 -2,4 0,1 1,4 2,4 7,6 3 1 7 4 ENE 1028,8 18 0 0,0
15.12.2018 16:00:00 0,4 -2,9 0,2 1,5 2,4 7,6 4 2 6 3 WNW 1029,3 27 0 0,0
15.12.2018 15:00:00 0,6 -3,1 0,6 1,6 2,3 7,6 4 2 9 5 NNE 1029,7 28 0 0,0
15.12.2018 14:00:00 0,8 -3,0 1,3 1,6 2,2 7,6 4 2 6 4 NNW 1029,9 22 0 0,0
15.12.2018 13:00:00 0,7 -2,7 1,0 1,3 2,1 7,6 3 2 6 3 WNW 1030,1 24 0 0,0
15.12.2018 12:00:00 0,6 -3,0 0,9 0,9 2,1 7,6 0 0 5 3 N 1030,8 24 0 0,0
15.12.2018 11:00:00 0,1 -3,2 0,3 0,8 2,1 7,6 2 1 5 3 SE 1031,3 22 0 0,0
15.12.2018 10:00:00 -0,2 -2,9 -0,2 0,7 2,1 7,6 4 2 5 3 E 1031,4 22 0 0,0
15.12.2018 09:00:00 -0,7 -2,8 -1,1 0,7 2,1 7,6 2 1 4 2 SSW 1031,1 20 0 0,0
15.12.2018 08:00:00 -0,4 -2,8 -0,9 0,7 2,2 7,6 2 1 8 4 SSE 1031,1 21 0 0,0
15.12.2018 07:00:00 -0,3 -3,1 -0,6 0,7 2,2 7,6 5 3 9 5 SE 1030,9 21 0 0,0
15.12.2018 06:00:00 -0,6 -2,5 -1,0 0,7 2,2 7,6 5 3 6 4 ESE 1030,9 17 0 0,0
15.12.2018 05:00:00 -0,5 -2,5 -0,9 0,7 2,2 7,7 5 3 10 5 SSE 1030,7 15 0 0,0
15.12.2018 04:00:00 -0,6 -2,5 -1,1 0,7 2,2 7,7 9 5 12 7 E 1030,6 15 0 0,0
15.12.2018 03:00:00 0,0 -3,3 -0,5 0,7 2,3 7,7 8 5 11 6 ESE 1030,7 18 0 0,0
15.12.2018 02:00:00 -0,4 -2,7 -0,9 0,7 2,3 7,7 6 3 11 6 ESE 1030,6 16 0 0,0
15.12.2018 01:00:00 -0,3 -2,7 -0,7 0,8 2,3 7,7 8 5 11 6 E 1030,5 16 0 0,0
15.12.2018 00:00:00 -0,3 -2,6 -0,8 0,8 2,4 7,7 6 4 10 6 E 1030,3 14 0 0,0
14.12.2018 23:00:00 -0,3 -2,7 -0,9 0,8 2,4 7,7 4 2 10 5 E 1030,4 16 0 0,0
14.12.2018 22:00:00 -0,1 -3,0 -0,5 0,8 2,4 7,7 8 4 9 5 E 1030,4 17 0 0,0
14.12.2018 21:00:00 -0,4 -2,5 -0,7 0,8 2,5 7,7 8 4 11 6 ENE 1030,2 15 0 0,0
14.12.2018 20:00:00 -0,3 -2,8 -0,6 0,8 2,5 7,7 8 4 10 5 ESE 1029,9 17 0 0,0
14.12.2018 19:00:00 -0,6 -2,7 -1,1 0,8 2,6 7,7 8 4 16 9 E 1029,9 14 0 0,0
14.12.2018 18:00:00 -0,1 -2,6 -0,5 0,9 2,7 7,7 10 5 13 7 E 1029,6 18 0 0,0
14.12.2018 17:00:00 0,0 -2,4 -0,3 1,1 2,7 7,7 10 6 14 8 E 1029,3 21 0 0,0
14.12.2018 16:00:00 0,0 -2,3 -0,2 1,3 2,7 7,7 9 5 18 10 E 1028,9 22 0 0,0
14.12.2018 15:00:00 0,3 -2,0 0,1 1,4 2,8 7,8 15 8 22 12 ESE 1028,6 16 0 0,0
14.12.2018 14:00:00 0,9 -2,4 0,8 1,5 2,8 7,8 15 8 26 14 ESE 1028,3 32 0 0,0
14.12.2018 13:00:00 1,2 -2,8 0,9 1,6 2,7 7,8 20 11 28 15 E 1028,1 62 0 0,0
14.12.2018 12:00:00 1,3 -2,8 1,2 1,5 2,7 7,8 16 9 31 17 E 1028,1 57 0 0,0
14.12.2018 11:00:00 1,4 -2,6 1,0 1,4 2,7 7,8 16 9 26 14 E 1028,1 30 0 0,0
14.12.2018 10:00:00 1,4 -2,4 0,8 1,3 2,7 7,8 22 12 29 16 ESE 1027,7 54 0 0,0
14.12.2018 09:00:00 0,8 -0,3 0,4 1,3 2,7 7,8 7 4 10 5 ENE 1027,2 14 0 0,0
14.12.2018 08:00:00 0,7 -0,2 0,2 1,3 2,8 7,8 9 5 17 9 E 1026,8 14 0 0,0
14.12.2018 07:00:00 0,9 -0,1 0,5 1,2 2,8 7,8 13 7 18 10 E 1026,4 19 0 0,0
14.12.2018 06:00:00 0,6 0,0 0,0 1,1 2,8 7,8 5 3 9 5 E 1026,1 27 0 0,0
14.12.2018 05:00:00 0,0 -0,8 -0,3 1,1 2,8 7,8 4 2 6 3 ENE 1026,0 27 0 0,0
14.12.2018 04:00:00 -0,2 -1,0 -0,7 1,0 2,9 7,8 0 0 7 4 N 1026,1 12 0 0,0
14.12.2018 03:00:00 -0,7 -1,5 -1,3 1,0 3,0 7,8 4 2 5 3 NNW 1026,3 32 0 0,0
14.12.2018 02:00:00 -0,1 -0,8 -1,1 1,1 3,0 7,8 1 0 8 5 S 1026,1 35 0 0,0
14.12.2018 01:00:00 -0,2 -1,2 -1,3 1,2 3,1 7,8 8 4 11 6 ESE 1026,1 44 0 0,0
14.12.2018 00:00:00 0,3 -0,8 -0,6 1,2 3,2 7,8 8 4 16 9 E 1026,1 35 0 0,0
13.12.2018 23:00:00 1,3 0,0 0,7 1,2 3,3 7,8 14 8 21 11 E 1026,0 56 0 0,0
13.12.2018 22:00:00 0,7 -0,6 -0,4 1,2 3,5 7,8 11 6 18 10 NE 1026,1 38 0 0,0
13.12.2018 21:00:00 0,3 -0,5 -1,6 1,5 3,6 7,8 5 3 12 7 NNE 1025,7 29 0 0,0
13.12.2018 20:00:00 0,6 -0,6 -0,6 1,9 3,7 7,8 12 6 16 8 ESE 1025,6 36 0 0,0
13.12.2018 19:00:00 1,8 0,0 0,8 2,2 3,8 7,8 9 5 15 8 E 1025,6 47 0 0,0
13.12.2018 18:00:00 1,5 0,0 0,7 2,2 4,0 7,9 9 5 15 8 ENE 1025,6 67 0 0,0
13.12.2018 17:00:00 2,0 0,4 1,3 2,7 4,1 7,9 9 5 18 10 NE 1025,7 70 0 0,0
13.12.2018 16:00:00 2,2 0,3 1,3 3,2 4,1 7,9 9 5 15 8 NE 1025,8 70 0 0,0
13.12.2018 15:00:00 2,6 0,8 2,1 3,6 4,0 7,9 11 6 22 12 ENE 1025,9 69 0 0,0
13.12.2018 14:00:00 3,2 0,5 2,7 3,7 3,9 7,9 13 7 17 9 ENE 1026,0 70 0 0,0
13.12.2018 13:00:00 3,4 1,0 3,1 3,6 3,8 7,9 9 5 14 8 E 1026,1 70 0 0,0
13.12.2018 12:00:00 3,1 1,0 2,6 3,2 3,8 7,9 11 6 22 12 ENE 1026,4 70 7 0,0
13.12.2018 11:00:00 3,2 0,9 2,8 3,2 3,7 7,9 15 8 21 11 E 1026,7 70 7 0,0
13.12.2018 10:00:00 2,9 0,9 2,8 2,5 3,7 7,9 12 7 18 10 ENE 1026,7 62 5 0,0
13.12.2018 09:00:00 2,3 0,9 1,6 2,6 3,7 7,9 10 5 23 12 ENE 1026,5 70 0 0,1
13.12.2018 08:00:00 2,4 1,3 1,8 2,5 3,7 7,9 9 5 14 8 NE 1026,6 56 0 0,0
13.12.2018 07:00:00 2,8 1,4 2,2 2,5 3,8 7,9 11 6 16 9 NE 1026,3 10 0 0,0
13.12.2018 06:00:00 2,6 1,3 2,0 2,2 3,8 7,9 7 4 16 9 N 1026,8 10 0 0,0
13.12.2018 05:00:00 2,3 0,6 0,7 2,5 3,9 7,9 10 6 19 10 NNE 1027,1 70 0 0,3
13.12.2018 04:00:00 2,2 0,7 1,7 2,3 4,0 7,9 8 5 22 12 NE 1027,6 8 0 0,2
13.12.2018 03:00:00 1,8 0,4 1,2 2,1 4,1 7,9 9 5 16 9 NE 1028,1 48 0 0,2
13.12.2018 02:00:00 0,0 -1,2 -0,3 2,0 4,3 7,9 5 3 8 5 NNW 1028,2 15 0 0,1
13.12.2018 01:00:00 1,5 -0,4 -0,1 2,6 4,4 7,9 6 4 23 13 NE 1028,4 70 0 0,0
13.12.2018 00:00:00 3,1 -0,7 2,7 3,2 4,5 7,9 15 8 25 13 ENE 1028,7 70 0 0,0
12.12.2018 23:00:00 3,1 -0,2 2,8 3,4 4,6 7,9 13 7 26 14 NE 1028,9 70 0 0,0
12.12.2018 22:00:00 3,4 0,1 3,0 3,5 4,6 7,9 17 9 29 16 NE 1028,7 70 0 0,0
12.12.2018 21:00:00 3,7 0,7 3,2 3,6 4,7 7,9 17 9 32 17 NE 1028,5 70 0 0,0
12.12.2018 20:00:00 4,2 1,3 3,6 3,7 4,7 7,9 22 12 36 19 NE 1028,3 70 0 0,0
12.12.2018 19:00:00 3,9 1,8 3,0 3,6 4,8 7,9 16 9 29 16 ENE 1028,1 70 0 0,0
12.12.2018 18:00:00 3,3 1,9 2,5 3,9 4,9 7,9 7 4 18 10 NE 1027,9 22 0 0,0
12.12.2018 17:00:00 3,3 1,8 2,7 4,2 4,9 7,9 12 6 28 15 ENE 1027,8 70 0 0,4
12.12.2018 16:00:00 4,5 2,4 3,8 4,5 4,9 7,9 13 7 28 15 NE 1027,4 8 0 0,4
12.12.2018 15:00:00 4,4 2,0 4,0 5,0 4,9 8,0 18 10 31 17 ENE 1027,2 4,2 0 0,0
12.12.2018 14:00:00 5,7 1,5 5,7 5,3 4,7 8,0 16 9 28 15 NE 1026,7 70 13 0,0
12.12.2018 13:00:00 5,7 1,9 5,8 4,9 4,6 8,0 16 8 28 15 NE 1026,7 70 0 0,0
12.12.2018 12:00:00 5,2 2,5 5,0 4,5 4,5 8,0 16 8 28 15 NNE 1026,8 70 0 0,0
12.12.2018 11:00:00 4,6 1,7 4,6 4,0 4,5 8,0 22 12 34 18 NNE 1026,7 70 4 0,0
12.12.2018 10:00:00 4,6 1,7 3,9 3,7 4,5 8,0 16 9 28 15 NNE 1026,3 65 0 0,0
12.12.2018 09:00:00 4,7 1,2 4,1 3,9 4,5 8,0 16 9 29 16 NNE 1025,8 69 0 0,0
12.12.2018 08:00:00 4,8 1,4 4,3 3,9 4,5 8,0 16 9 28 15 NE 1025,4 56 0 0,0
12.12.2018 07:00:00 4,8 2,0 4,3 4,0 4,5 8,0 17 9 30 16 NNE 1024,7 45 0 0,0
12.12.2018 06:00:00 5,1 2,3 4,5 4,0 4,5 8,0 17 9 29 16 NNE 1024,2 48 0 0,0
12.12.2018 05:00:00 5,0 2,3 4,0 3,9 4,4 8,0 16 8 35 19 NE 1023,8 29 0 0,0
12.12.2018 04:00:00 5,2 2,3 4,0 3,8 4,4 8,0 18 10 29 16 NNE 1023,3 24 0 0,1
12.12.2018 03:00:00 4,9 2,8 4,0 3,6 4,4 8,0 13 7 28 15 NNE 1023,0 26 0 0,3
12.12.2018 02:00:00 4,9 2,1 4,2 3,2 4,5 8,0 14 8 26 14 N 1022,4 70 0 0,0
12.12.2018 01:00:00 4,4 1,5 2,5 3,4 4,5 8,0 13 7 26 14 N 1021,9 70 0 0,0
12.12.2018 00:00:00 4,8 1,1 3,4 3,5 4,5 8,0 13 7 24 13 N 1021,7 70 0 0,2
11.12.2018 23:00:00 4,5 1,0 3,2 3,5 4,6 8,0 16 8 29 15 N 1021,2 12 0 0,0
11.12.2018 22:00:00 4,7 1,0 3,4 3,3 4,6 8,0 15 8 26 14 NNE 1020,7 70 0 0,0
11.12.2018 21:00:00 4,2 1,0 2,6 3,6 4,7 8,0 14 7 34 18 NNE 1020,1 70 0 0,1
11.12.2018 20:00:00 4,1 1,0 2,6 3,7 4,7 8,0 13 7 33 18 N 1019,6 70 0 0,3
11.12.2018 19:00:00 5,1 0,4 4,1 3,9 4,8 8,0 15 8 28 15 NNE 1018,9 44 0 0,0
11.12.2018 18:00:00 5,3 0,8 4,7 4,1 4,8 8,0 16 9 34 19 NNE 1018,1 70 0 0,0
11.12.2018 17:00:00 5,2 1,3 4,6 4,1 4,8 8,0 16 9 32 17 N 1017,5 70 0 0,0
11.12.2018 16:00:00 5,3 1,3 4,8 4,2 4,8 8,0 18 10 34 19 N 1016,8 70 0 0,0
11.12.2018 15:00:00 5,2 0,6 4,7 4,2 4,8 8,0 21 11 35 19 N 1016,2 70 0 0,0
11.12.2018 14:00:00 5,2 1,1 4,8 4,4 4,8 8,0 18 10 34 19 N 1015,7 70 0 0,0
11.12.2018 13:00:00 5,2 1,1 5,0 4,4 4,7 8,0 21 11 35 19 N 1014,9 70 0 0,0

tt = Température de l'air
td = dewpoint
tt 5cm = Température de l'air 5cm
tt -5cm = Température de l'air -5cm
tt -20cm = Température de l'air -20cm
tt -100cm = Température de l'air -100cm
ff = Vitesse du vent
fx = gusts
dd = Direction du vent
ppp = reduced air pressure
vv = visibility
sd = Ensoleillement
rr = Quantités de précipitations

stations d'obs. à proximité